Satellite: SO-50
Catalog number: 27607
Epoch time:      12180.44457001
Element set:     798
Inclination:      064.5589 deg
RA of node:       260.6544 deg
Eccentricity:    0.0082269
Arg of perigee:   246.3047 deg
Mean anomaly:     112.9406 deg
Mean motion:   14.72412424 rev/day
Decay rate:       2.63e-06 rev/day^2
Epoch rev:           51162
Checksum:              295

Satellite: CO-55
Catalog number: 27844
Epoch time:      12179.55379807
Element set:     405
Inclination:      098.7031 deg
RA of node:       187.7808 deg
Eccentricity:    0.0009373
Arg of perigee:   187.7761 deg
Mean anomaly:     172.3257 deg
Mean motion:   14.21034600 rev/day
Decay rate:       1.41e-06 rev/day^2
Epoch rev:           46636
Checksum:              323

Satellite: CO-57
Catalog number: 27848
Epoch time:      12179.55925885
Element set:    0356
Inclination:      098.7111 deg
RA of node:       187.1252 deg
Eccentricity:    0.0009063
Arg of perigee:   192.9189 deg
Mean anomaly:     167.1748 deg
Mean motion:   14.20784602 rev/day
Decay rate:        9.4e-07 rev/day^2
Epoch rev:           46630
Checksum:              343

Satellite: AO-51
Catalog number: 28375
Epoch time:      12180.19039760
Element set:     302
Inclination:      098.1482 deg
RA of node:       144.9538 deg
Eccentricity:    0.0084530
Arg of perigee:   008.2218 deg
Mean anomaly:     352.0331 deg
Mean motion:   14.40959915 rev/day
Decay rate:       2.18e-06 rev/day^2
Epoch rev:           42035
Checksum:              289

Satellite: CP3
Catalog number: 31129
Epoch time:      12179.54948691
Element set:    0201
Inclination:      097.8790 deg
RA of node:       186.7151 deg
Eccentricity:    0.0102641
Arg of perigee:   090.7933 deg
Mean anomaly:     270.5038 deg
Mean motion:   14.53093634 rev/day
Decay rate:       1.46e-06 rev/day^2
Epoch rev:           27548
Checksum:              311

Satellite: CO-65
Catalog number: 32785
Epoch time:      12179.77011332
Element set:     346
Inclination:      097.7990 deg
RA of node:       240.5720 deg
Eccentricity:    0.0015341
Arg of perigee:   031.2891 deg
Mean anomaly:     328.9206 deg
Mean motion:   14.83015413 rev/day
Decay rate:       1.43e-06 rev/day^2
Epoch rev:           22533
Checksum:              285

Satellite: PRISM
Catalog number: 33493
Epoch time:      12180.38639719
Element set:     829
Inclination:      098.1727 deg
RA of node:       321.2167 deg
Eccentricity:    0.0017485
Arg of perigee:   260.1402 deg
Mean anomaly:     099.7848 deg
Mean motion:   14.83938330 rev/day
Decay rate:      1.047e-05 rev/day^2
Epoch rev:           18541
Checksum:              321

Satellite: SOHLA-1
Catalog number: 33496
Epoch time:      12180.33598049
Element set:     763
Inclination:      098.1047 deg
RA of node:       291.9976 deg
Eccentricity:    0.0007227
Arg of perigee:   013.2575 deg
Mean anomaly:     346.8815 deg
Mean motion:   14.69983341 rev/day
Decay rate:        6.9e-07 rev/day^2
Epoch rev:           18388
Checksum:              345

Satellite: SO-67
Catalog number: 35870
Epoch time:      12180.40988177
Element set:      89
Inclination:      097.2310 deg
RA of node:       215.7623 deg
Eccentricity:    0.0003628
Arg of perigee:   111.8584 deg
Mean anomaly:     343.9169 deg
Mean motion:   15.23904411 rev/day
Decay rate:      1.997e-05 rev/day^2
Epoch rev:           15432
Checksum:              319

Satellite: TISAT-1
Catalog number: 36799
Epoch time:      12180.41382041
Element set:     105
Inclination:      098.0616 deg
RA of node:       256.8307 deg
Eccentricity:    0.0016036
Arg of perigee:   132.9237 deg
Mean anomaly:     227.3331 deg
Mean motion:   14.81993405 rev/day
Decay rate:       8.03e-06 rev/day^2
Epoch rev:           10615
Checksum:              279

Satellite: STUDSAT
Catalog number: 36801
Epoch time:      12179.92475958
Element set:    0433
Inclination:      098.0740 deg
RA of node:       257.1004 deg
Eccentricity:    0.0014162
Arg of perigee:   122.5589 deg
Mean anomaly:     237.6989 deg
Mean motion:   14.84403212 rev/day
Decay rate:      2.057e-05 rev/day^2
Epoch rev:           10611
Checksum:              294

Satellite: FO-69
Catalog number: 37227
Epoch time:      12179.46825757
Element set:    0219
Inclination:      071.9703 deg
RA of node:       289.2712 deg
Eccentricity:    0.0018108
Arg of perigee:   298.3339 deg
Mean anomaly:     061.6016 deg
Mean motion:   14.77092260 rev/day
Decay rate:       1.66e-06 rev/day^2
Epoch rev:           03761
Checksum:              323

Satellite: FO-70
Catalog number: 37380
Epoch time:      12179.47554455
Element set:    0223
Inclination:      071.9743 deg
RA of node:       289.8278 deg
Eccentricity:    0.0018623
Arg of perigee:   295.0880 deg
Mean anomaly:     064.8372 deg
Mean motion:   14.76843679 rev/day
Decay rate:       2.08e-06 rev/day^2
Epoch rev:           03750
Checksum:              341

Satellite: ALMASAT-1
Catalog number: 38078
Epoch time:      12180.40188671
Element set:     337
Inclination:      069.4963 deg
RA of node:       291.8543 deg
Eccentricity:    0.0758813
Arg of perigee:   234.7198 deg
Mean anomaly:     118.0673 deg
Mean motion:   14.09454130 rev/day
Decay rate:     1.2016e-04 rev/day^2
Epoch rev:            1913
Checksum:              311

